Weather WX

World > North America > United States > New Jersey

Passaic Park, New Jersey Regional Weather

Lat: 40.86N, Lon: 74.13W
Wx Zone: NJZ004
Warning FLW WEATHER ALERT - (More Info. Click Here) Warning
Feedback

Passaic Park, NJ Regional Weather

Expires:201907180300;;228574
ASUS41 KPHI 180212
RWRPHI

REGIONAL WEATHER ROUNDUP
NATIONAL WEATHER SERVICE MOUNT HOLLY NJ
1000 PM EDT WED JUL 17 2019

NOTE:  "FAIR" INDICATES FEW OR NO CLOUDS BELOW 12,000 FEET WITH NO
SIGNIFICANT WEATHER AND/OR OBSTRUCTIONS TO VISIBILITY.

 * = STATION DOES NOT REPORT PRECIPITATION (E.G. RAIN, SNOW, ETC.) 
        OR FOG.


NJZ001>014-180300-
NORTHERN NEW JERSEY
  
CITY           SKY/WX    TMP DP  RH WIND       PRES   REMARKS
SUSSEX         RAIN      73  71  93 E3        29.91F FOG              
ANDOVER*         N/A     73  72  96 NE3       29.91F                  
MORRISTOWN     TSTM      73  73 100 SE8       29.94R                  
NEWARK         TSTM      75  74  96 VRB3      29.93R FOG              
TETERBORO      LGT RAIN  76  72  87 VRB3      29.91R                  
CALDWELL       TSTM      76  74  93 NW8       29.94  VSB 1/2          
SOMERVILLE     LGT RAIN  74  73  97 S3        29.89F FOG              
ALLAIRE*       RAIN      75  72  90 W12       29.93R                  
TOMS RIVER*    RAIN      74  32  21 SW7       29.93R                  

$$

SKY/WX - Weather  TMP - Temperature  DP - Dew Point  RH - Relative Humidity
WIND - Wind Direction/Speed PRES - Barometric Pressure VSB - Visibility
WCI - Wind Chill Index E13G22 Wind - East Wind 13 mph/Gusts of 22 mph